Frankfort, MI

6:02 AM EST on December 12, 2019 (GMT -0500)
Frankfort

Weather History for KFKS - October, 2019

Change the Weather History Date:

Friday, October 11, 2019

  Actual Average (WUND) Record (WUND)
Temperature  
Mean Temperature 58 °F -  
Max Temperature 68 °F - - (-1)
Min Temperature 46 °F - - (-1)
Degree Days  
Heating Degree Days 8    
Growing Degree Days 8 (Base 50)    
Moisture  
Dew Point 52 °F    
Average Humidity 74    
Maximum Humidity 85    
Minimum Humidity 58    
Precipitation  
Precipitation 0.00 in - - ()
Sea Level Pressure  
Sea Level Pressure 29.85 in    
Wind  
Wind Speed 12 mph (South)    
Max Wind Speed 22 mph    
Max Gust Speed 28 mph    
Visibility 8 miles    
Events Rain    
Averages and records for this station are not official NWS values.
T = Trace of Precipitation, MM = Missing Value Source: NWS Daily Summary

Daily Weather History Graph

Daily Weather History Graph

Search for Another Location

Airport or City:

Astronomy

Oct. 11, 2019 Rise Set
Actual Time 7:54 AM EDT 7:07 PM EDT
Civil Twilight 7:25 AM EDT 7:36 PM EDT
Nautical Twilight 6:51 AM EDT 8:10 PM EDT
Astronomical Twilight 6:17 AM EDT 8:44 PM EDT
Moon 6:44 PM EDT (10/11) 5:25 AM EDT (10/11)
Length of Visible Light 12h 11m
Length of Day
11h 12m
Waxing Gibbous, 96% of the Moon is Illuminated
Oct 11
Waxing Gibbous
Oct 13
Full
Oct 21
Last Quarter
Oct 27
New
Nov 4
First Quarter

Hourly Weather History & Observations

Time (EDT) Temp. Dew Point Humidity Pressure Visibility Wind Dir Wind Speed Gust Speed Precip Events Conditions
12:17 AM 65.3 °F 52.0 °F 62% 30.00 in 10.0 mi SE 10.4 mph 17.3 mph N/A Rain Light Rain
12:35 AM 64.9 °F 52.0 °F 63% 30.00 in 10.0 mi SE 10.4 mph 16.1 mph N/A   Overcast
12:36 AM 64.9 °F 52.0 °F 63% 30.00 in 10.0 mi SE 9.2 mph 16.1 mph N/A   Overcast
12:55 AM 64.9 °F 51.8 °F 62% 29.99 in 10.0 mi SE 8.1 mph - N/A   Overcast
12:56 AM 64.9 °F 51.8 °F 62% 29.99 in 10.0 mi SE 9.2 mph - N/A   Overcast
1:15 AM 65.3 °F 51.8 °F 62% 29.99 in 10.0 mi SE 11.5 mph 17.3 mph N/A   Overcast
1:38 AM 64.4 °F 52.7 °F 66% 29.98 in 10.0 mi SE 8.1 mph 16.1 mph N/A Rain Light Rain
1:56 AM 63.5 °F 52.7 °F 68% 29.98 in 10.0 mi SE 13.8 mph - N/A Rain Light Rain
2:15 AM 64.4 °F 52.0 °F 64% 29.97 in 10.0 mi SE 10.4 mph 16.1 mph N/A   Overcast
2:16 AM 64.4 °F 52.0 °F 64% 29.97 in 10.0 mi SE 11.5 mph 16.1 mph N/A   Overcast
2:35 AM 64.6 °F 51.8 °F 63% 29.97 in 10.0 mi SSE 12.7 mph 18.4 mph N/A   Overcast
2:59 AM 64.9 °F 51.6 °F 62% 29.96 in 10.0 mi SE 10.4 mph 17.3 mph N/A   Overcast
3:17 AM 65.3 °F 51.3 °F 60% 29.95 in 10.0 mi SE 15.0 mph 18.4 mph N/A   Overcast
3:35 AM 63.7 °F 52.5 °F 67% 29.95 in 10.0 mi SE 12.7 mph 21.9 mph N/A   Drizzle
3:36 AM 63.5 °F 52.7 °F 68% 29.94 in 10.0 mi SE 11.5 mph 21.9 mph N/A   Light Drizzle
3:55 AM 63.0 °F 53.1 °F 70% 29.93 in 10.0 mi SE 12.7 mph 19.6 mph N/A   Overcast
3:56 AM 63.0 °F 53.2 °F 71% 29.93 in 10.0 mi SE 13.8 mph 18.4 mph N/A   Overcast
4:15 AM 61.9 °F 54.3 °F 76% 29.93 in 7.0 mi SE 13.8 mph 18.4 mph N/A Rain Rain
4:38 AM 61.3 °F 54.1 °F 77% 29.91 in 10.0 mi SE 10.4 mph 13.8 mph N/A Rain Light Rain
4:56 AM 61.5 °F 54.0 °F 76% 29.90 in 10.0 mi SE 10.4 mph - N/A   Overcast
5:15 AM 61.7 °F 54.0 °F 76% 29.90 in 10.0 mi SE 12.7 mph 17.3 mph N/A   Overcast
5:16 AM 61.7 °F 54.0 °F 76% 29.90 in 10.0 mi SE 11.5 mph 17.3 mph N/A   Overcast
5:35 AM 62.1 °F 54.0 °F 75% 29.90 in 10.0 mi SE 11.5 mph 17.3 mph N/A   Overcast
5:59 AM 63.1 °F 54.0 °F 72% 29.89 in 10.0 mi SE 11.5 mph 18.4 mph N/A   Overcast
6:17 AM 63.1 °F 53.8 °F 71% 29.89 in 10.0 mi SE 9.2 mph - N/A   Overcast
6:35 AM 63.5 °F 54.0 °F 71% 29.88 in 10.0 mi SE 9.2 mph - N/A   Mostly Cloudy
6:36 AM 63.5 °F 54.0 °F 71% 29.88 in 10.0 mi SE 10.4 mph - N/A   Overcast
6:55 AM 63.5 °F 54.5 °F 72% 29.88 in 10.0 mi SE 13.8 mph - N/A Rain Light Rain
7:15 AM 64.0 °F 54.9 °F 72% 29.88 in 10.0 mi SE 15.0 mph 25.3 mph N/A   Overcast
7:38 AM 63.7 °F 55.4 °F 74% 29.87 in 10.0 mi SE 16.1 mph 26.5 mph N/A Rain Light Rain
7:56 AM 63.7 °F 56.1 °F 76% 29.87 in 10.0 mi SE 17.3 mph 20.7 mph N/A   Overcast
8:15 AM 63.1 °F 56.7 °F 79% 29.86 in 10.0 mi SE 17.3 mph 23.0 mph N/A Rain Light Rain
8:35 AM 63.3 °F 57.2 °F 80% 29.86 in 5.0 mi SE 15.0 mph 21.9 mph N/A Rain Rain
8:36 AM 63.3 °F 57.2 °F 80% 29.86 in 5.0 mi SE 17.3 mph 21.9 mph N/A Rain Rain
8:59 AM 63.7 °F 58.1 °F 82% 29.86 in 10.0 mi SE 18.4 mph 26.5 mph N/A   Overcast
9:17 AM 64.4 °F 58.5 °F 81% 29.85 in 10.0 mi SSE 13.8 mph 21.9 mph N/A   Mostly Cloudy
9:35 AM 64.9 °F 59.0 °F 81% 29.85 in 10.0 mi SE 15.0 mph 24.2 mph N/A   Overcast
9:55 AM 65.7 °F 59.4 °F 80% 29.85 in 10.0 mi SSE 17.3 mph 23.0 mph N/A   Overcast
9:56 AM 65.7 °F 59.4 °F 80% 29.85 in 10.0 mi SSE 16.1 mph 23.0 mph N/A   Overcast
10:15 AM 65.5 °F 59.2 °F 80% 29.85 in 10.0 mi SSE 15.0 mph 20.7 mph N/A   Overcast
10:20 AM 65.5 °F 59.0 °F 80% 29.84 in 10.0 mi SE 11.5 mph 20.7 mph N/A   Overcast
10:38 AM 66.2 °F 59.2 °F 78% 29.83 in 10.0 mi SSE 19.6 mph 25.3 mph N/A   Mostly Cloudy
10:56 AM 66.2 °F 59.0 °F 78% 29.83 in 10.0 mi SSE 13.8 mph 21.9 mph N/A   Mostly Cloudy
11:15 AM 66.7 °F 59.0 °F 76% 29.82 in 10.0 mi SSE 16.1 mph 25.3 mph N/A   Overcast
11:35 AM 66.9 °F 59.0 °F 76% 29.81 in 10.0 mi SE 17.3 mph 24.2 mph N/A   Overcast
11:59 AM 67.6 °F 59.4 °F 75% 29.80 in 10.0 mi SE 15.0 mph 20.7 mph N/A   Overcast
12:17 PM 68.2 °F 59.5 °F 74% 29.80 in 10.0 mi SE 15.0 mph 25.3 mph N/A   Overcast
12:35 PM 68.0 °F 59.9 °F 75% 29.79 in 10.0 mi SSE 13.8 mph 26.5 mph N/A Rain Light Rain
12:36 PM 68.0 °F 59.9 °F 75% 29.79 in 10.0 mi SSE 16.1 mph 26.5 mph N/A Rain Rain
12:55 PM 66.7 °F 60.4 °F 80% 29.78 in 5.0 mi SE 12.7 mph 20.7 mph N/A Rain Light Rain
1:15 PM 67.1 °F 60.4 °F 79% 29.77 in 10.0 mi SE 13.8 mph 23.0 mph N/A   Overcast
1:38 PM 67.3 °F 60.8 °F 80% 29.76 in 7.0 mi SE 13.8 mph 19.6 mph N/A Rain Rain
1:56 PM 66.7 °F 61.2 °F 82% 29.75 in 7.0 mi SSE 12.7 mph 17.3 mph N/A Rain Light Rain
2:15 PM 66.7 °F 61.3 °F 83% 29.74 in 7.0 mi SE 11.5 mph 19.6 mph N/A Rain Light Rain
2:35 PM 67.1 °F 61.7 °F 83% 29.72 in 10.0 mi SE 11.5 mph 16.1 mph N/A Rain Rain
2:36 PM 67.1 °F 61.7 °F 83% 29.72 in 7.0 mi SE 10.4 mph 16.1 mph N/A Rain Rain
2:59 PM 67.1 °F 61.7 °F 83% 29.70 in 7.0 mi SE 11.5 mph - N/A Rain Light Rain
3:17 PM 67.1 °F 61.7 °F 83% 29.69 in 5.0 mi SE 13.8 mph 20.7 mph N/A Rain Light Rain
3:35 PM 67.3 °F 61.7 °F 82% 29.69 in 7.0 mi SE 16.1 mph 25.3 mph N/A Rain Light Rain
3:55 PM 66.2 °F 60.3 °F 81% 29.70 in 3.0 mi West 21.9 mph 27.6 mph N/A Rain Heavy Rain
4:15 PM 58.5 °F 53.8 °F 84% 29.72 in 3.0 mi West 12.7 mph 20.7 mph N/A Rain Rain
4:19 PM 58.6 °F 54.0 °F 84% 29.72 in 2.5 mi WNW 11.5 mph 19.6 mph N/A Rain Heavy Rain
4:38 PM 56.7 °F 52.2 °F 85% 29.74 in 3.0 mi West 10.4 mph 18.4 mph N/A Rain Rain
4:56 PM 56.3 °F 51.4 °F 84% 29.75 in 5.0 mi WSW 11.5 mph 20.7 mph N/A Rain Rain
5:15 PM 54.1 °F 48.6 °F 81% 29.77 in 4.0 mi West 15.0 mph 21.9 mph N/A   Drizzle
5:35 PM 52.7 °F 47.3 °F 82% 29.78 in 2.5 mi WSW 10.4 mph 18.4 mph N/A   Drizzle
5:36 PM 52.7 °F 47.3 °F 82% 29.79 in 2.5 mi WSW 11.5 mph 18.4 mph N/A   Drizzle
5:59 PM 52.0 °F 46.6 °F 82% 29.79 in 3.0 mi West 13.8 mph 19.6 mph N/A   Light Drizzle
6:17 PM 51.4 °F 45.7 °F 81% 29.80 in 3.0 mi WSW 12.7 mph 19.6 mph N/A   Light Drizzle
6:35 PM 51.3 °F 45.3 °F 80% 29.80 in 2.5 mi West 10.4 mph 16.1 mph N/A   Drizzle
6:55 PM 51.3 °F 45.9 °F 82% 29.81 in 4.0 mi WSW 15.0 mph 19.6 mph N/A   Drizzle
6:56 PM 51.3 °F 45.9 °F 82% 29.81 in 4.0 mi WSW 13.8 mph 18.4 mph N/A   Drizzle
7:15 PM 51.1 °F 45.9 °F 82% 29.80 in 5.0 mi WSW 8.1 mph - N/A Rain Light Rain
7:20 PM 51.1 °F 45.7 °F 82% 29.81 in 4.0 mi SW 10.4 mph - N/A Rain Light Rain
7:38 PM 50.2 °F 44.4 °F 81% 29.82 in 5.0 mi West 11.5 mph 19.6 mph N/A Rain Rain
7:56 PM 49.6 °F 43.2 °F 78% 29.83 in 7.0 mi WSW 11.5 mph 18.4 mph N/A Rain Light Rain
8:15 PM 49.1 °F 42.3 °F 77% 29.84 in 5.0 mi West 12.7 mph 21.9 mph N/A   Drizzle
8:16 PM 49.1 °F 42.1 °F 77% 29.84 in 5.0 mi WSW 13.8 mph 21.9 mph N/A   Drizzle
8:35 PM 48.4 °F 41.2 °F 76% 29.84 in 7.0 mi WSW 11.5 mph 26.5 mph N/A   Drizzle
8:36 PM 48.2 °F 41.0 °F 76% 29.84 in 7.0 mi West 10.4 mph 26.5 mph N/A   Drizzle
9:16 PM 49.1 °F 41.2 °F 74% 29.85 in 10.0 mi SW 15.0 mph 21.9 mph N/A   Light Drizzle
9:35 PM 49.3 °F 39.4 °F 69% 29.86 in 10.0 mi WSW 10.4 mph 23.0 mph N/A   Overcast
9:36 PM 49.3 °F 39.4 °F 69% 29.85 in 10.0 mi WSW 11.5 mph 23.0 mph N/A   Overcast
9:55 PM 47.8 °F 37.8 °F 68% 29.86 in 10.0 mi West 16.1 mph 24.2 mph N/A   Light Drizzle
10:15 PM 47.7 °F 36.5 °F 65% 29.85 in 10.0 mi West 15.0 mph 23.0 mph N/A Rain Rain
10:38 PM 47.1 °F 35.4 °F 64% 29.87 in 10.0 mi West 13.8 mph 20.7 mph N/A   Overcast
10:56 PM 47.3 °F 34.9 °F 62% 29.87 in 10.0 mi WSW 10.4 mph 23.0 mph N/A   Overcast
11:15 PM 47.3 °F 33.3 °F 58% 29.87 in 10.0 mi WSW 15.0 mph 26.5 mph N/A   Overcast
11:16 PM 47.3 °F 33.3 °F 58% 29.88 in 10.0 mi WSW 11.5 mph 26.5 mph N/A   Overcast
11:35 PM 47.3 °F 34.2 °F 60% 29.88 in 10.0 mi West 12.7 mph 24.2 mph N/A   Overcast
11:59 PM 46.6 °F 32.4 °F 58% 29.87 in 10.0 mi WSW 11.5 mph 25.3 mph N/A   Overcast